Owen Roberts, Cayman Islands

10:54 PM EST on March 26, 2017 (GMT -0500)
Roberts International

Weather History for MWCR - November, 2012

Change the Weather History Date:

Sunday, November 4, 2012

  Actual Average Record
Temperature  
Mean Temperature 82 °F -  
Max Temperature 86 °F 83 °F 89 °F (2003)
Min Temperature 78 °F 75 °F 73 °F (2015)
Cooling Degree Days 17    
Growing Degree Days 32 (Base 50)    
Moisture  
Dew Point 75 °F    
Average Humidity 80    
Maximum Humidity 89    
Minimum Humidity 71    
Precipitation  
Precipitation 0.00 in - - ()
Sea Level Pressure  
Sea Level Pressure 29.96 in    
Wind  
Wind Speed 11 mph ()    
Max Wind Speed 17 mph    
Max Gust Speed -    
Visibility 6.2 miles    
Events Rain    
Averages and records for this station are not official NWS values.
T = Trace of Precipitation, MM = Missing Value Source: Averaged Metar Reports

Daily Weather History Graph

Daily Weather History Graph

Search for Another Location

Airport or City:

Trip Planner

Search our weather history database for the weather conditions in past years. The results will help you decide how hot, cold, wet, or windy it might be!

Date:

Astronomy

Nov. 04, 2012 Rise Set
Actual Time 6:27 AM EST 5:50 PM EST
Civil Twilight 6:04 AM EST 6:12 PM EST
Nautical Twilight 5:38 AM EST 6:38 PM EST
Astronomical Twilight 5:12 AM EST 7:04 PM EST
Moon 10:32 PM EST (11/4) 11:02 AM EST (11/4)
Length of Visible Light 12h 07m
Length of Day
11h 22m
Waning Gibbous, 72% of the Moon is Illuminated
Nov 4
Waning Gibbous
Nov 6
Last Quarter
Nov 13
New
Nov 20
First Quarter
Nov 28
Full

Hourly Weather History & Observations

Time (EST) Temp. Heat Index Dew Point Humidity Pressure Visibility Wind Dir Wind Speed Gust Speed Precip Events Conditions
5:55 AM 78.8 °F - 75.2 °F 89% 29.98 in 6.2 mi East 5.8 mph - N/A Rain Light Rain Showers
6:55 AM 80.6 °F 86.2 °F 75.2 °F 84% 29.98 in 6.2 mi ENE 13.8 mph - N/A   Mostly Cloudy
7:00 AM 80 °F - 75 °F 82% 29.99 in 6 mi ENE 13.8 mph - - Rain Light Rain Showers
7:57 AM 82.4 °F 89.5 °F 75.2 °F 79% 29.98 in 6.2 mi ENE 15.0 mph - N/A   Mostly Cloudy
8:53 AM 82.4 °F 89.5 °F 75.2 °F 79% 30.01 in 6.2 mi East 16.1 mph - N/A   Scattered Clouds
9:51 AM 84.2 °F 92.3 °F 75.2 °F 74% 30.01 in 6.2 mi East 17.3 mph - N/A   Scattered Clouds
10:52 AM 82.4 °F 89.5 °F 75.2 °F 79% 30.01 in 6.2 mi ENE 17.3 mph - N/A   Scattered Clouds
11:52 AM 84.2 °F 92.3 °F 75.2 °F 74% 29.98 in 6.2 mi ENE 16.1 mph - N/A   Mostly Cloudy
12:54 PM 82.4 °F 89.5 °F 75.2 °F 79% 29.95 in 6.2 mi ENE 15.0 mph - N/A   Scattered Clouds
1:00 PM 83 °F - 75 °F 71% 29.97 in 6 mi ENE 15.0 mph - -   Mostly Cloudy
2:00 PM 86.0 °F 96.9 °F 77.0 °F 74% 29.92 in 6.2 mi East 16.1 mph - N/A   Scattered Clouds
3:00 PM 82.4 °F 90.9 °F 77.0 °F 84% 29.92 in 6.2 mi ENE 15.0 mph - N/A   Mostly Cloudy
4:00 PM 82.4 °F 89.5 °F 75.2 °F 79% 29.92 in 6.2 mi East 13.8 mph - N/A   Scattered Clouds
5:00 PM 82.4 °F 89.5 °F 75.2 °F 79% 29.92 in 6.2 mi East 11.5 mph - N/A   Partly Cloudy
6:00 PM 80.6 °F 86.2 °F 75.2 °F 84% 29.92 in 6.2 mi East 8.1 mph - N/A   Partly Cloudy
7:00 PM 80 °F - 75 °F 80% 29.95 in 6 mi East 6.9 mph - -   Scattered Clouds
7:00 PM 80.6 °F 86.2 °F 75.2 °F 84% 29.95 in 6.2 mi East 6.9 mph - N/A   Partly Cloudy
8:00 PM 80.6 °F 86.2 °F 75.2 °F 84% 29.95 in 6.2 mi East 5.8 mph - N/A   Partly Cloudy
9:00 PM 80.6 °F 86.2 °F 75.2 °F 84% 29.95 in 6.2 mi East 5.8 mph - N/A   Partly Cloudy
10:00 PM 80.6 °F 86.2 °F 75.2 °F 84% 29.98 in 6.2 mi East 4.6 mph - N/A   Partly Cloudy